カタログに戻る

ONEWEB-0380

運用中通信PO
NORAD 49306·PAYLOAD·🇬🇧 United Kingdom

打ち上げ Oct 14, 2021 から Vostochny Cosmodrome

Loading…

次のパス (今後24時間)

TLE

最新Source: CelesTrak SupGP

元期: Sep 14, 2026, 14:19 UTC

1 49306C 21090AD  26257.59671714 -.00000538  00000+0 -13453-2 0  2578
2 49306  87.9103 287.1588 0001912 100.2336  11.8859 13.19726239    15

AllMySatでONEWEB-0380をリアルタイム追跡

Download on the App Store